Date,TemperatureHighF,TemperatureAvgF,TemperatureLowF,DewpointHighF,DewpointAvgF,DewpointLowF,HumidityHigh,HumidityAvg,HumidityLow,PressureMaxIn,PressureMinIn,WindSpeedMaxMPH,WindSpeedAvgMPH,GustSpeedMaxMPH,PrecipitationSumIn
2013-1-1,47.8,44.1,40.1,34.3,24.3,12.9,78,49,26,30.23,30.13,28,10,28,0.00
2013-1-2,54.7,50.0,45.0,18.5,15.2,12.4,27,25,21,30.15,30.04,37,22,42,0.00
2013-1-3,55.9,51.3,47.8,17.1,12.8,7.7,26,21,17,30.17,30.04,45,25,45,0.00
2013-1-4,57.0,51.1,46.2,25.5,13.5,7.2,33,22,16,30.27,30.17,24,5,25,0.00
2013-1-5,55.8,51.2,44.2,29.8,19.0,10.9,47,28,20,30.28,30.16,9,1,10,0.00
2013-1-6,45.7,41.4,38.7,41.2,37.3,26.6,95,86,51,30.16,30.01,40,8,41,0.10
2013-1-7,56.1,48.6,39.2,32.5,26.5,17.2,75,46,22,30.15,29.97,54,24,54,0.00
2013-1-8,65.7,60.0,54.3,34.7,28.7,17.4,35,30,22,30.11,30.02,32,16,35,0.00
2013-1-9,62.4,56.2,42.3,42.1,33.3,24.6,96,45,29,30.10,29.93,12,3,13,0.00
2013-1-10,45.7,40.5,33.6,41.7,31.1,21.2,97,71,42,30.06,29.88,41,12,48,0.00
2013-1-11,43.9,37.4,34.0,28.0,20.8,16.5,59,51,42,30.20,30.05,37,10,38,0.00
2013-1-12,44.4,37.8,33.6,24.1,18.5,12.7,59,46,35,30.17,30.05,35,10,40,0.00
2013-1-13,45.3,38.0,33.6,26.1,17.9,7.9,65,44,33,30.18,30.06,32,10,34,0.00
2013-1-14,40.1,35.2,29.5,8.1,1.9,-0.8,33,24,19,30.36,30.11,44,26,47,0.00
2013-1-15,50.7,43.6,37.0,21.9,12.8,4.1,32,28,23,30.47,30.35,34,16,37,0.00
2013-1-16,59.0,52.5,46.0,25.7,21.2,18.5,36,29,23,30.38,30.13,39,21,40,0.00
2013-1-17,64.2,59.0,55.0,19.0,16.3,13.5,23,19,15,30.19,30.06,38,24,39,0.00
2013-1-18,63.3,58.7,54.9,20.3,16.5,13.6,22,19,17,30.16,30.07,28,16,29,0.00
2013-1-19,68.5,59.3,54.9,25.5,16.3,12.2,20,18,16,30.19,30.09,27,14,28,0.00
2013-1-21,64.8,62.9,62.2,12.7,9.4,7.0,13,12,11,30.08,30.00,33,15,33,0.00
2013-1-22,70.0,63.4,59.7,26.6,11.7,7.0,20,13,11,30.09,30.01,18,5,20,0.00
2013-1-23,66.4,60.6,46.6,40.5,26.7,12.0,79,30,14,30.08,29.99,24,9,24,0.08
2013-1-24,55.0,49.7,44.8,51.4,48.2,41.0,98,95,82,30.17,30.04,28,13,29,0.94
2013-1-25,54.9,51.8,49.5,51.1,49.3,46.0,98,92,76,30.16,29.96,26,15,32,0.54
2013-1-26,58.8,52.6,47.3,55.0,49.3,45.9,97,89,76,29.96,29.90,27,10,28,0.02
2013-1-27,48.6,45.0,40.3,46.9,40.6,22.5,98,86,49,30.01,29.93,29,8,31,0.01
2013-1-28,47.3,41.6,37.9,35.6,26.4,22.1,69,55,49,30.19,30.00,31,14,31,0.00
2013-1-29,48.9,44.9,40.6,36.1,29.2,23.0,72,54,44,30.24,30.16,28,3,29,0.00
2013-1-30,60.1,53.6,45.1,43.5,34.2,29.3,67,48,38,30.35,30.21,22,5,23,0.00
2013-1-31,67.3,60.5,52.5,40.5,33.2,29.5,48,36,29,30.24,30.10,28,12,29,0.00
2013-2-1,67.3,61.7,58.5,43.7,34.9,30.2,52,37,30,30.16,30.09,22,6,23,0.00
2013-2-2,64.8,60.0,56.1,41.2,36.9,31.3,55,43,29,30.16,30.11,33,15,34,0.00
2013-2-3,65.8,59.8,54.9,42.4,37.1,27.9,56,44,29,30.13,29.98,29,14,30,0.00
2013-2-4,66.4,60.0,54.3,48.7,37.8,27.5,56,44,30,30.06,29.94,22,4,25,0.00
2013-2-5,59.5,49.9,44.1,48.6,42.1,32.0,97,78,36,30.03,29.94,18,3,18,0.00
2013-2-6,53.1,47.3,41.7,46.9,43.5,35.1,97,87,65,30.10,29.98,20,3,21,0.00
2013-2-7,49.3,44.3,40.5,44.2,40.7,30.4,96,88,53,30.12,29.96,24,2,26,0.00
2013-2-8,42.1,37.9,33.4,38.5,34.4,31.1,95,87,76,29.96,29.86,36,10,41,0.09
2013-2-9,46.2,40.9,36.3,37.6,32.3,24.4,87,72,56,30.09,29.92,19,2,19,0.00
2013-2-10,43.9,40.1,37.8,40.3,36.6,32.0,96,87,71,30.09,30.02,11,1,11,0.00
2013-2-11,51.3,44.4,39.9,37.9,25.8,14.5,80,50,26,30.23,30.05,28,10,30,0.00
2013-2-12,53.1,47.8,43.2,35.1,20.2,9.1,52,34,23,30.35,30.22,31,12,31,0.00
2013-2-13,60.3,54.4,49.8,39.2,27.4,18.0,51,36,26,30.25,30.13,29,8,30,0.00
2013-2-14,67.3,59.2,51.3,38.3,28.0,21.9,40,31,25,30.19,30.06,21,8,22,0.00
2013-2-15,69.3,62.3,56.8,32.4,24.6,18.9,30,24,19,30.19,30.10,32,14,35,0.00
2013-2-16,69.4,64.5,61.3,27.7,18.0,11.8,21,17,13,30.16,29.94,19,5,22,0.00
2013-2-17,61.9,55.1,42.6,48.0,32.0,14.5,92,47,16,29.96,29.87,14,2,15,0.00
2013-2-18,50.4,43.5,40.8,45.1,41.3,39.2,97,92,80,30.05,29.94,14,2,17,0.00
2013-2-19,44.6,39.7,34.5,41.2,37.5,31.8,99,92,80,29.97,29.68,39,7,41,0.08
2013-2-20,49.5,39.8,31.6,37.8,27.2,21.6,90,61,45,30.00,29.66,40,12,42,0.05
2013-2-21,49.3,42.7,37.2,39.6,32.9,22.1,96,70,41,30.11,29.97,27,9,29,0.03
2013-2-22,54.0,49.5,45.9,39.6,27.7,17.6,67,43,27,30.21,30.10,21,4,22,0.00
2013-2-23,54.0,49.4,45.7,45.9,32.8,15.3,84,55,26,30.15,29.90,48,7,51,0.00
2013-2-25,57.7,53.5,50.4,36.9,24.2,19.4,55,32,25,30.20,30.05,13,2,45,0.00
2013-2-26,61.9,54.6,47.5,25.5,19.7,12.7,38,26,18,30.11,29.96,41,22,44,0.00
2013-2-27,61.2,55.6,49.8,18.0,13.8,10.6,22,19,16,30.27,30.11,39,21,44,0.00
2013-2-28,68.2,59.8,52.7,27.9,16.5,9.3,25,18,15,30.33,30.22,36,16,41,0.00
2013-3-1,75.6,66.0,58.5,34.5,23.3,16.3,25,20,18,30.30,30.16,37,11,40,0.00
2013-3-2,73.6,67.5,62.4,33.4,26.6,20.8,24,21,18,30.21,30.05,18,4,18,0.00
2013-3-3,64.9,57.5,49.5,50.4,36.0,20.3,75,48,19,30.06,29.92,20,3,20,0.00
2013-3-4,58.3,51.1,44.4,49.6,45.1,40.6,94,80,68,30.09,29.96,20,3,22,0.00
2013-3-5,51.6,45.4,40.8,50.7,43.7,40.1,97,94,75,30.10,30.01,15,4,16,0.00
2013-3-6,47.5,43.1,38.7,43.7,41.0,37.9,97,92,79,30.16,30.01,10,3,13,0.00
2013-3-7,47.8,43.3,41.0,46.6,40.9,35.4,98,91,72,30.01,29.82,27,6,27,0.10
2013-3-8,45.9,40.7,36.0,42.3,38.6,34.0,97,92,81,30.02,29.75,30,8,33,0.62
2013-3-9,55.6,47.3,37.9,42.3,36.2,27.3,94,68,39,30.22,30.01,33,11,35,0.12
2013-3-10,65.5,57.9,50.9,29.7,22.7,18.0,42,26,17,30.28,30.15,33,20,37,0.02
2013-3-11,67.3,61.7,56.1,45.7,28.5,19.8,48,28,21,30.17,30.03,25,5,26,0.00
2013-3-12,73.9,67.4,60.8,44.1,28.7,19.6,35,24,14,30.07,29.99,21,5,24,0.00
2013-3-13,80.4,73.8,68.2,45.3,32.1,21.7,31,22,16,30.09,29.99,14,4,14,0.00
2013-3-14,81.3,75.3,70.9,47.5,35.3,27.0,32,24,17,30.04,29.95,21,4,21,0.00
2013-3-15,74.1,70.1,63.3,50.5,36.0,24.3,51,30,18,29.98,29.87,15,3,16,0.00
2013-3-16,72.9,65.9,59.7,51.6,39.8,28.9,63,39,25,29.90,29.82,25,8,28,0.00
2013-3-17,70.0,60.7,51.1,48.2,39.1,28.8,72,46,27,29.94,29.84,39,12,43,0.00
2013-3-18,56.1,49.9,43.9,49.5,45.1,33.3,96,84,43,30.06,29.91,14,3,16,0.00
2013-3-19,67.6,57.0,47.7,52.9,44.1,35.2,92,64,39,30.10,30.02,21,5,23,0.00
2013-3-20,64.2,58.8,52.3,50.7,44.5,38.8,81,59,45,30.06,29.94,33,7,36,0.00
2013-3-21,63.3,58.0,53.8,51.4,43.4,24.8,76,59,30,29.94,29.77,32,11,34,0.00
2013-3-22,67.8,57.9,48.0,50.9,29.8,13.6,66,35,18,29.88,29.76,34,15,37,0.00
2013-3-23,67.5,58.8,50.2,50.7,30.2,15.8,66,35,18,29.99,29.86,33,11,34,0.00
2013-3-24,67.6,61.9,53.2,50.5,33.4,15.6,57,36,19,29.98,29.87,17,4,17,0.00
2013-3-25,67.5,62.1,58.6,45.9,32.2,23.4,53,33,24,29.94,29.86,9,2,10,0.00
2013-3-26,60.8,56.9,52.0,51.3,42.6,29.3,74,59,35,29.92,29.86,9,2,9,0.00
2013-3-27,58.5,51.5,45.0,50.9,46.0,37.8,96,82,57,30.03,29.88,11,3,13,0.00
2013-3-28,64.9,56.5,47.8,52.7,47.3,43.7,90,72,53,30.07,29.99,16,3,18,0.00
2013-3-29,73.0,62.7,57.4,52.5,45.2,40.5,67,53,34,30.08,30.00,13,4,13,0.00
2013-3-30,65.7,58.2,50.7,51.8,40.8,27.9,82,54,30,30.09,30.00,16,3,16,0.00
2013-3-31,52.9,49.8,45.5,50.4,47.0,40.1,97,90,65,30.11,30.04,20,3,22,0.11
2013-4-1,53.4,47.8,43.9,51.3,45.8,41.7,97,93,79,30.17,30.05,33,8,36,0.01
2013-4-2,63.0,55.5,46.6,53.4,47.5,40.3,93,75,47,30.09,29.99,24,5,28,0.00
2013-4-3,73.6,62.5,51.4,54.7,43.5,32.0,83,53,24,30.06,29.98,18,4,20,0.00
2013-4-4,68.4,59.5,51.1,53.6,45.3,31.5,92,61,32,30.06,29.96,22,4,30,0.00
2013-4-5,60.4,54.5,48.7,54.3,50.2,43.9,97,86,68,30.06,29.98,20,4,22,0.00
2013-4-6,65.7,57.9,52.3,52.9,46.9,37.8,82,67,45,30.06,29.93,27,8,29,0.00
2013-4-7,68.2,60.0,53.4,54.1,45.0,39.4,77,58,41,29.94,29.76,37,11,39,0.00
2013-4-8,56.7,49.9,44.1,47.7,38.2,28.9,96,67,37,29.84,29.61,34,10,40,0.00
2013-4-9,65.7,55.1,47.1,33.1,27.2,19.9,54,35,22,30.01,29.83,35,15,42,0.00
2013-4-10,74.1,63.8,55.6,35.6,25.2,18.1,33,23,14,30.10,29.96,44,16,47,0.00
2013-4-11,66.2,58.8,52.0,47.5,38.7,30.0,79,49,27,29.97,29.73,18,5,18,0.00
2013-4-12,74.1,59.6,45.1,54.0,46.5,37.6,95,65,35,29.85,29.75,18,3,21,0.00
2013-4-13,58.5,49.5,46.2,50.4,47.5,45.1,97,93,69,29.87,29.81,12,2,12,0.00
2013-4-14,49.6,46.5,44.4,49.1,45.9,43.9,98,98,97,29.89,29.82,10,1,11,0.00
2013-4-15,51.6,46.4,41.5,48.4,45.2,39.6,98,96,84,29.91,29.84,15,4,16,0.00
2013-4-16,54.3,47.2,39.4,40.8,33.5,21.2,95,62,32,30.01,29.84,33,10,35,0.00
2013-4-17,61.2,52.5,44.8,28.6,22.1,18.3,38,31,22,30.14,30.01,32,15,32,0.00
2013-4-18,67.1,57.5,50.7,28.8,19.0,14.2,30,22,15,30.21,30.10,45,22,45,0.00
2013-4-19,73.8,66.4,58.5,34.5,22.4,13.8,30,19,14,30.16,29.96,29,9,31,0.00
2013-4-20,79.2,70.8,63.1,51.3,33.9,25.5,42,26,20,29.97,29.86,36,12,41,0.00
2013-4-21,75.4,68.4,61.9,48.2,39.2,29.5,41,35,21,29.95,29.88,13,3,14,0.00
2013-4-22,65.1,60.1,48.4,52.2,41.6,31.6,86,52,34,29.94,29.84,9,1,10,0.00
2013-4-23,72.3,56.4,45.1,51.4,46.2,36.1,97,73,28,29.96,29.85,12,2,14,0.00
2013-4-24,50.4,47.9,46.2,49.6,46.8,43.9,98,96,87,29.99,29.86,12,3,13,0.02
2013-4-25,46.9,46.9,46.9,44.4,44.4,44.2,91,91,91,29.97,29.97,0,0,0,0.02